Miscellaneous Local Product
Issued by NWS Hastings, NE

Home | Current Version | Previous Version | Text Only | Print | Product List | Glossary On
Versions: 1 2 3 4 5 6 7 8 9 10 11 12 13 14 15 16 17 18 19 20 21 22 23 24 25 26 27 28 29 30 31 32 33 34 35 36 37 38 39 40 41 42 43 44 45 46 47 48 49 50
000
AXUS43 KGID 031002
MISGRI

GID CWA HOURLY WEATHER ROUNDUP
NATIONAL WEATHER SERVICE HASTINGS NE
400 AM CST TUE MAR 03 2015

NOTE: "FAIR" INDICATES FEW OR NO CLOUDS BELOW 12,000 FEET WITH NO
SIGNIFICANT WEATHER AND/OR OBSTRUCTIONS TO VISIBILITY.

...SOUTH CENTRAL NEBRASKA...

CITY           SKY/WX    TMP DP  RH WIND       PRES   REMARKS
GRAND ISLAND   CLOUDY    29  23  78 SE3       29.63F
HASTINGS       CLOUDY    30  24  78 S5        29.60F WCI  25
KEARNEY        CLOUDY    28  21  74 N5        29.63R WCI  23
ORD            CLOUDY    28  20  71 S5        29.63F WCI  23
YORK           CLOUDY    30  27  86 SE7       29.67F WCI  23
AURORA         CLOUDY    30  25  82 SE5       29.62F WCI  25
LEXINGTON      CLOUDY    29  23  79 E5        29.59F WCI  24
HOLDREGE       CLOUDY    29  24  81 CALM      29.60R
HEBRON         CLOUDY    33  29  84 S8        29.67F FOG     WCI  27

...NEBRASKA PANHANDLE...

CITY           SKY/WX    TMP DP  RH WIND       PRES   REMARKS
CHADRON        SNOW      25  21  85 N24G30    29.76R VSB 1/2 WCI   9
ALLIANCE       CLOUDY    29  26  89 N21G26    29.61F WCI  16
SCOTTSBLUFF    LGT SNOW  30  27  88 N13       29.67R FOG     WCI  20
SIDNEY         CLOUDY    29  27  92 NW8       29.60F FOG     WCI  21

...WESTERN AND NORTH CENTRAL NEBRASKA...

CITY           SKY/WX    TMP DP  RH WIND       PRES   REMARKS
VALENTINE      LGT SNOW  30  27  88 NE9       29.53F VSB 3/4 WCI  22
AINSWORTH      LGT SNOW  28  26  93 SW5       29.60F WCI  23
ONEILL         CLOUDY    30  23  75 SW9       29.64F WCI  21
BROKEN BOW     CLOUDY    28  22  78 SE5       29.59F WCI  23
IMPERIAL         N/A     28  24  85 N8        29.60R FOG     WCI  20
NORTH PLATTE   CLOUDY    27  23  85 CALM      29.60S
MCCOOK         CLOUDY    30  23  75 N9        29.58S WCI  22

...EASTERN NEBRASKA...

CITY           SKY/WX    TMP DP  RH WIND       PRES   REMARKS
NORFOLK        CLOUDY    30  22  72 S6        29.64F WCI  24
SO SIOUX CITY  CLOUDY    30  21  69 SE7       29.69F WCI  23
TEKAMAH        CLOUDY    32  23  69 S15       29.69F WCI  22
COLUMBUS       CLOUDY    30  19  64 S10       29.67F WCI  21
ALBION         CLOUDY    29  21  71 S6        29.64F WCI  23
OMAHA EPPLEY   CLOUDY    32  26  78 S15       29.72F WCI  22
OFFUTT AFB     CLOUDY    32  27  84 SE10      29.71F WCI  23
MILLARD        CLOUDY    32  25  74 SE5       29.73F WCI  27
LINCOLN        CLOUDY    32  28  85 SE7       29.70F FOG     WCI  26
NEBRASKA CITY  CLOUDY    32  29  88 S8        29.72F FOG     WCI  25
BEATRICE       CLOUDY    33  32  99 S13       29.69F FOG     WCI  23
FALLS CITY     LGT RAIN  33  31  92 S15       29.70F FOG     WCI  23

...NORTHERN KANSAS...

CITY           SKY/WX    TMP DP  RH WIND       PRES   REMARKS
GOODLAND       CLOUDY    36  30  79 W14       29.55F WCI  27
HILL CITY      CLOUDY    35  31  85 S7        29.56F WCI  29
PHILLIPSBURG   CLEAR     34  28  80 E7        29.56F WCI  28
SMITH CENTER   CLOUDY    30  27  86 SE13      29.59F WCI  20
BELOIT         PTCLDY    34  28  80 S9        29.64F WCI  26
HAYS           CLOUDY    37  27  65 SW8G20    29.60R WCI  31
RUSSELL        MOCLDY    37  31  78 S21       29.58F WCI  26
CONCORDIA      CLOUDY    34  31  88 S12G17    29.64F FOG     WCI  25
SALINA         MOCLDY    37  31  78 S31G37    29.64F WCI  24
TOPEKA         CLOUDY    36  34  92 S9        29.76F WCI  29



USA.gov is the U.S. government's official web portal to all federal, state and local government web resources and services.